Clinton-Sherman, OK

6:20 PM CST on November 22, 2017 (GMT -0600)
Clinton-Sherman

Weather History for KCSM - October, 2013

Change the Weather History Date:

Tuesday, October 1, 2013

  Actual Average Record
Temperature  
Mean Temperature 75 °F -  
Max Temperature 89 °F 77 °F 95 °F (2014)
Min Temperature 61 °F 54 °F 46 °F (2003)
Cooling Degree Days 10    
Growing Degree Days 25 (Base 50)    
Moisture  
Dew Point 56 °F    
Average Humidity 55    
Maximum Humidity 78    
Minimum Humidity 34    
Precipitation  
Precipitation 0.00 in - - ()
Sea Level Pressure  
Sea Level Pressure 29.82 in    
Wind  
Wind Speed 17 mph (SSE)    
Max Wind Speed 23 mph    
Max Gust Speed 29 mph    
Visibility 10 miles    
Events      
Averages and records for this station are not official NWS values.
T = Trace of Precipitation, MM = Missing Value Source: NWS Daily Summary

Daily Weather History Graph

Daily Weather History Graph

Search for Another Location

Airport or City:

Trip Planner

Search our weather history database for the weather conditions in past years. The results will help you decide how hot, cold, wet, or windy it might be!

Date:

Astronomy

Oct. 01, 2013 Rise Set
Actual Time 7:31 AM CDT 7:20 PM CDT
Civil Twilight 7:06 AM CDT 7:45 PM CDT
Nautical Twilight 6:37 AM CDT 8:14 PM CDT
Astronomical Twilight 6:07 AM CDT 8:44 PM CDT
Moon 4:13 AM CDT (10/1) 5:19 PM CDT (10/1)
Length of Visible Light 12h 39m
Length of Day
11h 48m
Waning Crescent, 12% of the Moon is Illuminated
Oct 1
Waning Crescent
Oct 4
New
Oct 11
First Quarter
Oct 18
Full
Oct 26
Last Quarter

Hourly Weather History & Observations

Time (CDT) Temp. Heat Index Dew Point Humidity Pressure Visibility Wind Dir Wind Speed Gust Speed Precip Events Conditions
12:53 AM 66.9 °F - 51.1 °F 57% 29.79 in 10.0 mi South 17.3 mph - N/A   Clear
1:53 AM 66.9 °F - 51.1 °F 57% 29.78 in 10.0 mi South 18.4 mph - N/A   Clear
2:53 AM 64.9 °F - 51.1 °F 61% 29.78 in 10.0 mi South 16.1 mph - N/A   Clear
3:53 AM 64.9 °F - 51.1 °F 61% 29.77 in 10.0 mi South 17.3 mph - N/A   Clear
4:53 AM 64.0 °F - 52.0 °F 65% 29.77 in 10.0 mi South 17.3 mph - N/A   Clear
5:53 AM 62.1 °F - 53.1 °F 72% 29.78 in 10.0 mi SSE 15.0 mph - N/A   Clear
6:53 AM 61.0 °F - 53.1 °F 75% 29.79 in 10.0 mi SSE 13.8 mph - N/A   Clear
7:53 AM 61.0 °F - 54.0 °F 78% 29.82 in 10.0 mi South 11.5 mph - N/A   Clear
8:53 AM 66.0 °F - 55.9 °F 70% 29.83 in 10.0 mi SSE 16.1 mph - N/A   Clear
9:53 AM 71.1 °F - 57.0 °F 61% 29.83 in 10.0 mi SSE 17.3 mph - N/A   Clear
10:53 AM 75.9 °F - 59.0 °F 56% 29.84 in 10.0 mi SSE 19.6 mph - N/A   Clear
11:53 AM 78.1 °F - 60.1 °F 54% 29.85 in 10.0 mi South 19.6 mph - N/A   Clear
12:53 PM 82.0 °F 82.4 °F 60.1 °F 47% 29.84 in 10.0 mi SSE 17.3 mph - N/A   Clear
1:53 PM 84.9 °F 84.8 °F 60.1 °F 43% 29.83 in 10.0 mi SSE 17.3 mph 23.0 mph N/A   Clear
2:53 PM 87.1 °F 86.7 °F 60.1 °F 40% 29.81 in 10.0 mi SSE 17.3 mph 26.5 mph N/A   Clear
3:53 PM 88.0 °F 86.9 °F 57.9 °F 36% 29.81 in 10.0 mi SSE 18.4 mph 27.6 mph N/A   Clear
4:53 PM 89.1 °F 88.2 °F 59.0 °F 36% 29.80 in 10.0 mi SE 23.0 mph 28.8 mph N/A   Clear
5:53 PM 87.1 °F 85.7 °F 55.9 °F 35% 29.81 in 10.0 mi SSE 21.9 mph - N/A   Clear
6:53 PM 84.0 °F 82.5 °F 53.1 °F 34% 29.82 in 10.0 mi SSE 17.3 mph - N/A   Clear
7:53 PM 78.1 °F - 54.0 °F 43% 29.84 in 10.0 mi SE 11.5 mph - N/A   Clear
8:53 PM 75.9 °F - 55.0 °F 48% 29.86 in 10.0 mi SE 12.7 mph - N/A   Clear
9:53 PM 73.9 °F - 60.1 °F 62% 29.87 in 10.0 mi SE 12.7 mph - N/A   Clear
10:53 PM 73.0 °F - 59.0 °F 61% 29.87 in 10.0 mi SSE 16.1 mph - N/A   Clear
11:53 PM 72.0 °F - 57.9 °F 61% 29.88 in 10.0 mi SSE 16.1 mph - N/A   Clear